| time (UTC) | temp F | wind direction | speed knots | gust knots | rain 1hr in | rain 24hr in | rain mn in | humidity % | barometer mb |
| 20260901113002 | 68 | 197 | 0.0 | 0.0 | 0.00 | 0.00 | 0.00 | 93 | 1013.5 |
| 20260901111501 | 67 | 197 | 0.0 | 0.0 | 0.00 | 0.00 | 0.00 | 94 | 1013.4 |
| 20260901110002 | 67 | 197 | 0.0 | 0.0 | 0.00 | 0.00 | 0.00 | 94 | 1013.3 |
| 20260901104502 | 67 | 198 | 0.0 | 0.0 | 0.00 | 0.00 | 0.00 | 93 | 1013.4 |
| 20260901103108 | 67 | 198 | 0.0 | 0.0 | 0.00 | 0.00 | 0.00 | 94 | 1013.2 |
| 20260901101559 | 67 | 198 | 0.0 | 0.0 | 0.00 | 0.00 | 0.00 | 94 | 1013.1 |
| 20260901100110 | 66 | 198 | 0.0 | 0.0 | 0.00 | 0.00 | 0.00 | 95 | 1013.2 |
| 20260901094600 | 66 | 198 | 0.0 | 0.0 | 0.00 | 0.00 | 0.00 | 96 | 1013.3 |
| 20260901093113 | 65 | 198 | 0.0 | 0.0 | 0.00 | 0.00 | 0.00 | 96 | 1013.3 |
| 20260901091607 | 65 | 198 | 0.0 | 0.0 | 0.00 | 0.00 | 0.00 | 97 | 1013.3 |
| 20260901090054 | 65 | 207 | 0.0 | 0.0 | 0.00 | 0.00 | 0.00 | 96 | 1013.3 |
| 20260901084556 | 65 | 221 | 0.0 | 0.0 | 0.00 | 0.00 | 0.00 | 96 | 1013.4 |
| 20260901083059 | 65 | 222 | 0.0 | 0.0 | 0.00 | 0.00 | 0.00 | 96 | 1013.2 |
| 20260901081552 | 65 | 222 | 0.0 | 0.0 | 0.00 | 0.00 | 0.00 | 96 | 1013.2 |
| 20260901080056 | 65 | 226 | 0.0 | 0.0 | 0.00 | 0.00 | 0.00 | 96 | 1013.1 |
| 20260901074549 | 66 | 235 | 0.0 | 0.0 | 0.00 | 0.00 | 0.00 | 93 | 1013.2 |
| 20260901073049 | 68 | 243 | 0.0 | 0.0 | 0.00 | 0.00 | 0.00 | 93 | 1013.2 |
| 20260901071543 | 69 | 243 | 0.0 | 0.0 | 0.00 | 0.00 | 0.00 | 91 | 1013.3 |
| 20260901070045 | 70 | 242 | 0.0 | 0.0 | 0.00 | 0.00 | 0.00 | 90 | 1013.4 |
| 20260901064544 | 70 | 243 | 0.0 | 0.0 | 0.00 | 0.00 | 0.00 | 90 | 1013.6 |
| 20260901063039 | 70 | 243 | 0.0 | 0.0 | 0.00 | 0.00 | 0.00 | 91 | 1013.5 |
| 20260901061537 | 70 | 243 | 0.0 | 0.0 | 0.00 | 0.00 | 0.00 | 92 | 1013.6 |
| 20260901060036 | 69 | 243 | 0.0 | 0.0 | 0.00 | 0.00 | 0.00 | 92 | 1013.7 |
| 20260901054533 | 70 | 242 | 0.0 | 0.0 | 0.00 | 0.00 | 0.00 | 93 | 1013.5 |
| 20260901053032 | 70 | 242 | 0.0 | 0.0 | 0.00 | 0.00 | 0.00 | 92 | 1013.3 |
| 20260901051529 | 71 | 284 | 0.0 | 0.0 | 0.00 | 0.00 | 0.00 | 89 | 1013.3 |
| 20260901050024 | 72 | 359 | 0.0 | 0.0 | 0.00 | 0.00 | 0.00 | 86 | 1013.0 |
| 20260901044523 | 73 | 359 | 0.0 | 0.0 | 0.00 | 0.00 | 0.00 | 85 | 1012.9 |
| 20260901043025 | 73 | 351 | 0.0 | 0.0 | 0.00 | 0.00 | 0.00 | 86 | 1012.8 |
| 20260901041521 | 72 | 258 | 0.0 | 0.0 | 0.00 | 0.00 | 0.00 | 89 | 1012.7 |
| 20260901040025 | 71 | 257 | 0.0 | 0.0 | 0.00 | 0.00 | 0.00 | 90 | 1012.9 |
| 20260901034520 | 72 | 257 | 0.0 | 0.0 | 0.00 | 0.00 | 0.00 | 88 | 1012.8 |
| 20260901033019 | 72 | 311 | 0.0 | 0.0 | 0.00 | 0.00 | 0.00 | 87 | 1012.7 |
| 20260901031518 | 74 | 311 | 0.0 | 0.0 | 0.00 | 0.00 | 0.00 | 84 | 1012.7 |
| 20260901030018 | 75 | 311 | 0.0 | 0.0 | 0.00 | 0.00 | 0.00 | 83 | 1012.6 |
| 20260901024526 | 75 | 311 | 0.0 | 0.0 | 0.00 | 0.00 | 0.00 | 82 | 1012.6 |
| 20260901023019 | 75 | 311 | 0.0 | 0.0 | 0.00 | 0.00 | 0.00 | 82 | 1012.7 |
| 20260901021517 | 77 | 292 | 0.0 | 0.0 | 0.00 | 0.00 | 0.00 | 81 | 1012.6 |
| 20260901020015 | 77 | 290 | 0.0 | 0.0 | 0.00 | 0.00 | 0.00 | 80 | 1012.6 |
| 20260901014513 | 78 | 269 | 0.0 | 0.0 | 0.00 | 0.00 | 0.00 | 80 | 1012.4 |
| 20260901013012 | 78 | 251 | 0.0 | 0.0 | 0.00 | 0.00 | 0.00 | 79 | 1012.1 |
| 20260901011510 | 78 | 251 | 0.0 | 0.0 | 0.00 | 0.00 | 0.00 | 78 | 1011.9 |
| 20260901010012 | 79 | 251 | 0.0 | 0.0 | 0.00 | 0.00 | 0.00 | 77 | 1012.0 |
| 20260901004527 | 79 | 251 | 0.0 | 0.0 | 0.00 | 0.00 | 0.00 | 79 | 1011.9 |
| 20260901003008 | 80 | 251 | 0.0 | 0.0 | 0.00 | 0.00 | 0.00 | 77 | 1011.8 |
| 20260901001519 | 81 | 251 | 0.0 | 0.0 | 0.00 | 0.00 | 0.00 | 78 | 1011.8 |
| 20260901000013 | 81 | 251 | 0.0 | 0.0 | 0.00 | 0.00 | 0.00 | 75 | 1011.7 |
| 20260831234506 | 83 | 251 | 0.0 | 0.0 | 0.00 | 0.00 | 0.00 | 75 | 1011.8 |
| 20260831233005 | 84 | 250 | 0.0 | 0.0 | 0.00 | 0.00 | 0.00 | 73 | 1011.7 |
| 20260831231505 | 84 | 250 | 0.0 | 0.0 | 0.00 | 0.00 | 0.00 | 76 | 1011.7 |
| 20260831230005 | 84 | 250 | 0.0 | 0.0 | 0.00 | 0.00 | 0.00 | 74 | 1011.6 |
| 20260831224504 | 84 | 277 | 0.0 | 0.0 | 0.00 | 0.00 | 0.00 | 71 | 1011.7 |
| 20260831223004 | 86 | 276 | 0.0 | 0.0 | 0.00 | 0.00 | 0.00 | 73 | 1011.7 |
| 20260831221501 | 85 | 297 | 0.0 | 0.0 | 0.00 | 0.00 | 0.00 | 74 | 1011.5 |
| 20260831220104 | 86 | 281 | 0.0 | 0.9 | 0.00 | 0.00 | 0.00 | 74 | 1011.4 |
| 20260831214623 | 86 | 281 | 0.0 | 1.7 | 0.00 | 0.00 | 0.00 | 77 | 1011.4 |
| 20260831213056 | 85 | 20 | 0.0 | 3.5 | 0.00 | 0.00 | 0.00 | 76 | 1011.4 |
| 20260831211555 | 85 | 340 | 0.0 | 0.0 | 0.00 | 0.00 | 0.00 | 76 | 1011.5 |
| 20260831210051 | 84 | 340 | 0.0 | 2.6 | 0.00 | 0.00 | 0.00 | 80 | 1011.4 |
| 20260831204556 | 83 | 1 | 0.0 | 2.6 | 0.00 | 0.00 | 0.00 | 80 | 1011.3 |
| 20260831203051 | 83 | 12 | 0.9 | 2.6 | 0.00 | 0.00 | 0.00 | 83 | 1011.3 |
| 20260831201549 | 82 | 353 | 0.9 | 2.6 | 0.00 | 0.00 | 0.00 | 84 | 1011.3 |
| 20260831200048 | 81 | 330 | 0.9 | 3.5 | 0.00 | 0.00 | 0.00 | 88 | 1011.2 |
| 20260831194543 | 80 | 329 | 0.0 | 2.6 | 0.00 | 0.00 | 0.00 | 90 | 1011.3 |
| 20260831193037 | 78 | 328 | 1.7 | 3.5 | 0.00 | 0.00 | 0.00 | 91 | 1010.7 |
| 20260831191536 | 78 | 325 | 1.7 | 3.5 | 0.00 | 0.00 | 0.00 | 90 | 1010.9 |
| 20260831190053 | 79 | 342 | 1.7 | 3.5 | 0.00 | 0.00 | 0.00 | 89 | 1010.6 |
| 20260831184538 | 79 | 340 | 1.7 | 3.5 | 0.00 | 0.00 | 0.00 | 90 | 1010.6 |
| 20260831183046 | 78 | 329 | 1.7 | 4.3 | 0.00 | 0.00 | 0.00 | 91 | 1010.5 |
| 20260831181533 | 78 | 333 | 1.7 | 3.5 | 0.00 | 0.00 | 0.00 | 91 | 1010.7 |
| 20260831180031 | 77 | 328 | 0.9 | 3.5 | 0.00 | 0.00 | 0.00 | 91 | 1011.0 |
| 20260831174530 | 77 | 316 | 0.9 | 4.3 | 0.00 | 0.00 | 0.00 | 91 | 1011.0 |
| 20260831173029 | 77 | 323 | 0.9 | 3.5 | 0.00 | 0.00 | 0.00 | 90 | 1011.2 |
| 20260831171531 | 77 | 262 | 0.0 | 0.0 | 0.00 | 0.00 | 0.00 | 89 | 1011.1 |
| 20260831170027 | 78 | 259 | 0.0 | 1.7 | 0.00 | 0.00 | 0.00 | 89 | 1011.2 |
| 20260831164529 | 77 | 231 | 0.0 | 3.5 | 0.00 | 0.00 | 0.00 | 90 | 1011.1 |
| 20260831163037 | 77 | 271 | 0.0 | 0.9 | 0.00 | 0.00 | 0.00 | 90 | 1010.8 |
| 20260831161522 | 76 | 271 | 0.0 | 1.7 | 0.00 | 0.00 | 0.00 | 90 | 1011.1 |
| 20260831160034 | 76 | 271 | 0.0 | 1.7 | 0.00 | 0.00 | 0.00 | 91 | 1011.0 |
| 20260831154522 | 76 | 243 | 0.9 | 2.6 | 0.00 | 0.00 | 0.00 | 91 | 1010.9 |
| 20260831153016 | 76 | 261 | 0.0 | 1.7 | 0.00 | 0.00 | 0.00 | 91 | 1010.7 |
| 20260831151520 | 76 | 267 | 0.9 | 2.6 | 0.00 | 0.00 | 0.00 | 91 | 1010.4 |
| 20260831150010 | 75 | 265 | 0.9 | 2.6 | 0.00 | 0.00 | 0.00 | 93 | 1010.3 |
| 20260831144516 | 75 | 255 | 0.9 | 3.5 | 0.00 | 0.00 | 0.00 | 94 | 1010.2 |
| 20260831143003 | 74 | 261 | 0.9 | 2.6 | 0.00 | 0.00 | 0.00 | 96 | 1010.1 |
| 20260831141557 | 73 | 259 | 1.7 | 2.6 | 0.00 | 0.00 | 0.00 | 96 | 1010.2 |
| 20260831140057 | 73 | 272 | 1.7 | 3.5 | 0.00 | 0.00 | 0.00 | 96 | 1009.9 |
| 20260831134550 | 73 | 257 | 1.7 | 4.3 | 0.00 | 0.00 | 0.00 | 97 | 1009.7 |
| 20260831133050 | 72 | 245 | 1.7 | 3.5 | 0.00 | 0.00 | 0.00 | 98 | 1009.5 |
| 20260831131544 | 72 | 217 | 1.7 | 5.2 | 0.00 | 0.00 | 0.00 | 97 | 1009.3 |
| 20260831130038 | 72 | 213 | 1.7 | 4.3 | 0.00 | 0.00 | 0.00 | 98 | 1009.1 |
| 20260831124544 | 71 | 217 | 2.6 | 4.3 | 0.00 | 0.00 | 0.00 | 98 | 1009.0 |
| 20260831123029 | 71 | 235 | 3.5 | 5.2 | 0.00 | 0.00 | 0.00 | 98 | 1008.7 |
| 20260831121529 | 70 | 219 | 2.6 | 5.2 | 0.00 | 0.00 | 0.00 | 99 | 1008.5 |
| 20260831120047 | 68 | 185 | 1.7 | 6.1 | 0.00 | 0.00 | 0.00 | 98 | 1008.0 |
| 20260831114527 | 69 | 196 | 0.9 | 3.5 | 0.00 | 0.00 | 0.00 | 98 | 1008.0 |
| 20260831113027 | 68 | 188 | 0.9 | 1.7 | 0.00 | 0.00 | 0.00 | 98 | 1007.9 |